GLO1900 SBEG-SBBV

Flight info

Callsign GLO1900
Flight time N/A
Altitude 32000
Route OSARO UM402 LOLOB/N0452F340 UM402 BVI
Aircraft B38M/M-SDE1FGHILORVWXY/HB1

Departure

Time N/A
Airport Eduardo Gomes International Airport (SBEG)

Arrival

Time 2026-04-15 20:47
Airport Atlas Brasil Cantanhede International Airport (SBBV)
Time Latitude Longitude Altitude Speed Heading
2026-04-15 20:39 2.46580 -60.63654 11747 ft 340 kts 355°
2026-04-15 20:40 2.48888 -60.63955 11332 ft 337 kts 355°
2026-04-15 20:40 2.51234 -60.64261 10901 ft 335 kts 355°
2026-04-15 20:40 2.53528 -60.64559 10580 ft 330 kts 355°
2026-04-15 20:40 2.55791 -60.64854 10389 ft 338 kts 355°
2026-04-15 20:41 2.58229 -60.65171 10105 ft 366 kts 355°
2026-04-15 20:41 2.60621 -60.65484 9953 ft 356 kts 355°
2026-04-15 20:41 2.63044 -60.65799 9636 ft 348 kts 355°
2026-04-15 20:41 2.65436 -60.66111 9148 ft 346 kts 355°
2026-04-15 20:42 2.67797 -60.66419 8708 ft 334 kts 355°
2026-04-15 20:42 2.70021 -60.66709 8384 ft 315 kts 355°
2026-04-15 20:42 2.72142 -60.66986 8011 ft 301 kts 355°
2026-04-15 20:42 2.74172 -60.67251 7666 ft 288 kts 355°
2026-04-15 20:43 2.76118 -60.67504 7328 ft 276 kts 355°
2026-04-15 20:43 2.77905 -60.67737 7032 ft 266 kts 355°
2026-04-15 20:43 2.79689 -60.67970 6727 ft 256 kts 355°
2026-04-15 20:43 2.81414 -60.68194 6430 ft 243 kts 355°
2026-04-15 20:44 2.83016 -60.68437 6144 ft 225 kts 347°
2026-04-15 20:44 2.84331 -60.69205 5757 ft 218 kts 315°
2026-04-15 20:44 2.85050 -60.70466 5431 ft 209 kts 285°
2026-04-15 20:44 2.85224 -60.71875 5216 ft 193 kts 275°
2026-04-15 20:45 2.85345 -60.73122 5070 ft 175 kts 276°
2026-04-15 20:45 2.85426 -60.74330 4886 ft 174 kts 274°
2026-04-15 20:45 2.85224 -60.75505 4354 ft 178 kts 229°
2026-04-15 20:45 2.84193 -60.75934 3829 ft 163 kts 171°
2026-04-15 20:46 2.83135 -60.75539 3110 ft 170 kts 142°
2026-04-15 20:46 2.82288 -60.74750 2383 ft 171 kts 120°
2026-04-15 20:46 2.82175 -60.73568 1414 ft 186 kts 67°
2026-04-15 20:46 2.82772 -60.72529 1032 ft 173 kts 61°
2026-04-15 20:47 2.83371 -60.71467 619 ft 162 kts 61°
2026-04-15 20:47 2.83845 -60.70547 415 ft 142 kts 64°
2026-04-15 20:47 2.84264 -60.69727 283 ft 118 kts 63°
2026-04-15 20:47 2.84510 -60.69240 282 ft 49 kts 62°
2026-04-15 20:48 2.84645 -60.68984 283 ft 42 kts 63°
2026-04-15 20:48 2.84775 -60.68723 284 ft 41 kts 64°
2026-04-15 20:48 2.84875 -60.68527 282 ft 11 kts 62°
2026-04-15 20:48 2.84888 -60.68480 282 ft 1 kts 114°
2026-04-15 20:49 2.84868 -60.68465 284 ft 10 kts 150°
2026-04-15 20:49 2.84786 -60.68425 286 ft 7 kts 166°
2026-04-15 20:49 2.84761 -60.68433 282 ft 4 kts 219°
2026-04-15 20:49 2.84741 -60.68464 282 ft 6 kts 243°
2026-04-15 20:50 2.84718 -60.68511 282 ft 8 kts 243°
2026-04-15 20:50 2.84688 -60.68570 288 ft 10 kts 243°
2026-04-15 20:50 2.84653 -60.68640 286 ft 12 kts 240°
2026-04-15 20:50 2.84608 -60.68721 284 ft 14 kts 240°
2026-04-15 20:51 2.84556 -60.68814 282 ft 16 kts 241°
2026-04-15 20:51 2.84505 -60.68921 282 ft 18 kts 245°
2026-04-15 20:51 2.84448 -60.69041 282 ft 20 kts 242°
2026-04-15 20:51 2.84379 -60.69169 284 ft 22 kts 242°
2026-04-15 20:52 2.84304 -60.69235 282 ft 11 kts 200°
2026-04-15 20:52 2.84239 -60.69325 286 ft 21 kts 243°
2026-04-15 20:52 2.84224 -60.69349 282 ft 0 kts 216°
2026-04-15 20:52 2.84203 -60.69349 282 ft 7 kts 169°
2026-04-15 20:53 2.84177 -60.69338 282 ft 1 kts 154°
2026-04-15 20:53 2.84172 -60.69335 282 ft 2 kts 154°
2026-04-15 20:53 2.84163 -60.69331 285 ft 2 kts 154°
2026-04-15 20:53 2.84162 -60.69330 285 ft 0 kts 154°